Location: Angwan Shehu
(11.2514°N, 7.4613°E)
Time: 23:34:47
(UTC+00:00)

Tiros 1 - Pass Details

Date: 19 April 2021
Orbit: 630 x 664 km, 48.4° (Epoch: 07 May)

Event Time Altitude Azimuth Distance (km) Brightness Sun altitude
Rises 17:57:10 0° 300° (WNW) 2,915 12.3 -4.5°
Reaches altitude 10° 17:59:50 10° 286° (WNW) 2,012 11.6 -5.1°
Maximum altitude 18:03:33 24° 232° (SW) 1,320 9.3 -6.0°
Drops below altitude 10° 18:07:19 10° 178° (S) 2,029 9.6 -6.9°
Sets 18:10:01 0° 165° (SSE) 2,945 10.2 -7.6°
